Home   Weather   Masaya   Past weeks

Flag for Nicaragua Past Weather in Masaya, Nicaragua — Yesterday and Last 2 Weeks

Now
79 °F

Passing clouds.


Feels Like: 82 °F
Forecast: 74 / 89 °F
Wind: No wind

Location: Managua A. C. Sandino

Current Time: Aug 19, 2017 at 1:31:26 am

Latest Report: Aug 19, 2017 at 12:00 am


Visibility: N/A

Pressure: 29.86 "Hg

Humidity: 89%

Dew Point: 75 °F

Location of MasayaLocation

Past Weather in Masaya — Graph

°F

Masaya Temperature Yesterday

Maximum temperature yesterday: 93 °F (at 2:00 pm)
Minimum temperature yesterday: 75 °F (at 4:00 am)
Average temperature yesterday: 83 °F

High & Low Weather Summary for the Past Weeks

 TemperatureHumidityPressure
High93 °F (Aug 15, 2:00 pm)100% (Aug 7, 1:00 am)29.98 "Hg (Aug 7, 1:00 am)
Low73 °F (Aug 9, 4:00 pm)22% (Aug 10, 12:00 am)29.71 "Hg (Aug 8, 4:00 pm)
Average82 °F80%29.84 "Hg
* Reported Aug 4 12:00 am — Aug 19 12:00 am, Masaya. Weather by CustomWeather, © 2017

Note: Actual official high and low records may vary slightly from our data, if they occured in-between our weather recording intervals... More about our weather records

Advertising

Masaya Weather History for the Previous 24 Hours

Scroll right to see more
 ConditionsComfort  
Time TempWeatherWind HumidityBarometerVisibility
12:00 am
Sat, Aug 19
79 °FPassing clouds.No wind89%29.86 "HgN/A
11:00 pm
Fri, Aug 18
81 °FPassing clouds.No wind84%29.89 "HgN/A
10:00 pm81 °FPassing clouds.5 mph84%29.86 "HgN/A
9:00 pm81 °FPassing clouds.7 mph84%29.86 "HgN/A
8:00 pm82 °FPassing clouds.7 mph84%29.83 "HgN/A
7:00 pm82 °FPassing clouds.9 mph79%29.80 "HgN/A
6:00 pm86 °FPassing clouds.12 mph70%29.80 "HgN/A
5:00 pm90 °FPassing clouds.7 mph63%29.77 "HgN/A
4:00 pm90 °FPassing clouds.7 mph63%29.77 "HgN/A
3:00 pm91 °FPassing clouds.7 mph56%29.77 "HgN/A
2:00 pm93 °FScattered clouds.9 mph53%29.77 "HgN/A
1:00 pm90 °FScattered clouds.9 mph55%29.80 "HgN/A
12:00 pm91 °FScattered clouds.12 mph52%29.83 "HgN/A
11:00 am90 °FScattered clouds.12 mph59%29.83 "HgN/A
10:00 am88 °FPassing clouds.12 mph62%29.86 "HgN/A
9:00 am86 °FScattered clouds.12 mph62%29.86 "HgN/A
8:00 am84 °FPassing clouds.12 mph70%29.86 "HgN/A
7:00 am79 °FPassing clouds.7 mph84%29.83 "HgN/A
6:00 am75 °FScattered clouds.7 mph89%29.83 "HgN/A
5:00 am75 °FPassing clouds.5 mph89%29.80 "HgN/A
4:00 am75 °FPassing clouds.No wind94%29.80 "HgN/A
3:00 am77 °FPassing clouds.5 mph89%29.80 "HgN/A
2:00 am77 °FPassing clouds.5 mph89%29.80 "HgN/A
1:00 am77 °FPassing clouds.5 mph94%29.83 "HgN/A
Weather by CustomWeather, © 2017

See weather overviewHow to use our weather pages